THORAD AGENA D DEB, 39592

Orbit data source: Space-Track

THORAD AGENA D DEB, 39592 is space debris in SSO originally from a launch on Wed, 08 Apr 1970 UTC launched from the Air Force Western Test Range (AFWTR). Debris objects in space refer to the collection of defunct objects orbiting the Earth. Examples of debris include non-operational satellites, rocket bodies, and fragments generated from explosions, collisions, or faulty payload assembly.

Loading next visibility...
Identifier
39592, 1970-025QT
Orbit
SSO
Country
Flag of USUS
Related business
Manufacturer
Unknown
Mission
Spacecraft
Bus & Motor
Unknown
Mass
Unknown
Launch date (UTC)
1970-04-08 (56 years ago)
Launch vehicle
Unknown
Launch site
Air Force Western Test Range (AFWTR)
Object type
Payload
Rocket body
Debris
Shape & HBR
Unknown shape, 0.1 m
Radar Cross Section
Small (<0.1 m²)

Expand to show TLE details & history
Last TLE update: 19 hours ago

TLE from 19 hours ago
0 THORAD AGENA D DEB
1 39592U 70025QT  26169.01855310  .00000763  00000-0  11115-2 0  9996
2 39592 100.1342 190.5934 0004568  81.8496 278.3159 13.58578439609262
Epoch: 2026-06-18T00:26Z
TLE epoch observation values (Epoch: 2026-06-18T00:26:42.987Z)
Latitude
-0.0001°
Longitude
-82.3536°
Altitude
1,043.156 km
Speed
7.331 km/s
True Right ascension
12h 42m 22s
True Declination
0° 00' 00"
Sunlit
Object was in daylight at epoch
Visualization orbit readout
Latitude
Unknown
Longitude
Unknown
Altitude
Unknown
Speed
Unknown
Apparent Right ascension
Unknown
Apparent Declination
Unknown
Sunlit
N/A
Visualization observer readout
Local Sidereal Time
05:58:53
Azimuth
Unknown
Elevation
Unknown
Doppler factor
Unknown
Orbital elements
Apogee altitude
1,041.563 km
Perigee altitude
1,034.788 km
Semi-major axis
7,416.313 km
Eccentricity
0.00046
Inclination
100.1342°
RAAN
190.5934°
Arg. of periapsis
81.8496°
True anomaly
278.2641°
Mean anomaly
278.3159°
Eccentric anomaly
278.29°
Mean motion
3.3983 °/min
Orbital period
105.94 mins
BSTAR
0.0011115

Documentation

Showing up to 5 results
|